Vertical_Velocity
-1 -2 -2 -0 -1 -2 0 -1 -0 -0 1 1 1 -1 -1 -2 -1 -1 -1 -1 -2 -2 -2 -2 -2 -1 -1 -1 -1 -1 -1 -0 0 -0 -1 -1 -1 -0 -0 -0 -1 -1 -0
-1 -1 -2 -1 -2 -2 -1 -0 0 -0 -1 0 -0 -1 -2 -2 -1 -1 -0 -0 -1 -1 -1 -1 -1 -1 -1 -1 -1 -2 -2 -1 -1 -1 0 1 0 -0 -0 -0 -0 0 -0
-1 -1 -2 -1 -1 -1 -1 -1 -1 -2 -1 -1 -1 -1 -1 -2 -1 -2 -1 -1 -0 -0 -0 -1 -1 -1 -1 -1 -0 -1 -2 -1 -1 -0 -0 -1 -0 -0 -0 -1 -1 -1 -0
0 -1 -1 -1 -1 -1 -1 -2 -1 -1 -2 -2 -2 -1 -1 -0 0 -1 -1 0 -0 -1 -0 -0 0 0 0 0 1 1 0 -1 -1 -1 -0 -0 -0 -1 0 0 -0 0 -2
-1 -0 -1 -1 -1 -1 -1 -0 -1 -1 -2 -1 -1 -1 -1 -1 -1 -1 -2 -1 -1 -1 -1 -1 -1 -0 1 0 1 1 1 -0 -1 -2 -2 -3 -0 -1 -1 -1 -1 0 0
1 0 -0 -1 -1 -2 -0 -1 -0 -1 -1 -1 -1 -1 -1 -1 -1 -1 -1 -2 -0 -1 -1 -0 -0 -1 -0 0 0 -1 -1 -1 -1 -0 -1 -1 1 -1 -1 -0 -1 -1 -2
0 -0 -0 -1 -1 -1 -1 -2 -1 -1 0 1 -1 -1 -1 -1 -1 -1 -0 0 -0 -0 -0 -1 -1 -1 -1 -1 -1 -1 -1 -0 -1 -1 -2 -3 0 -1 -2 -1 -0 1 -1
0 -1 0 -1 -1 -0 -1 -1 -1 -0 -0 -1 -2 -2 -2 -2 -1 -1 -1 -1 -1 -1 -1 -1 0 1 0 -1 -2 -1 0 0 -2 -0 -2 -2 2 0 -1 -1 -1 0 -1
1 -0 -0 0 -1 -1 -1 -0 -0 0 -1 -1 -1 -2 -2 -2 -1 -0 -0 -1 -1 -1 -1 -1 -1 -1 -1 -1 -0 0 -0 -0 -1 0 -1 1 -3 -0 -0 0 0 0 0
0 -0 -1 1 0 -0 -1 -1 -0 -0 -1 -1 -1 -1 -1 -1 -1 -1 -2 -1 -1 -1 -2 -1 -2 -2 -1 -1 -2 1 1 0 0 -1 1 -6 -1 1 3 1 2 0 0
1 -1 -1 0 0 -1 -1 -1 -1 -1 -1 -2 -1 -1 -1 -1 -1 -1 -1 -2 -2 -2 -2 -1 -2 -1 -0 -1 1 -1 -1 -0 -0 -3 0 2 0 -1 -1 -1 0 2 1
0 -1 -0 0 -0 -1 -1 -1 -1 0 -0 -2 -1 -0 -1 -1 -1 -1 -1 -1 -1 -1 -1 -2 -1 -1 -1 0 -0 -1 0 -1 -1 0 -0 -0 -1 -0 -0 -0 -0 0 0
2 1 -0 0 -0 -0 -1 -0 -1 -1 -1 -1 -2 -1 -1 -1 -2 -2 -1 -2 -2 -2 -1 -1 -1 -0 -0 -1 -1 -1 -0 -0 -0 0 -2 -2 -1 -1 -2 -0 -1 2 -2
-0 1 1 0 -0 -0 -1 -1 -1 -1 -1 -1 -2 -2 -1 -1 -1 -2 -2 -2 -2 -1 -1 -0 -1 -2 -2 -3 -3 -2 -1 -2 -2 -1 -1 -1 -1 -2 -2 -0 -0 -0 -1
0 1 1 1 0 0 -0 -1 -1 -2 -1 -1 -2 -2 -1 -0 -1 -2 -2 -2 -3 -2 -1 -2 -2 -2 -2 -3 -2 -2 -2 -1 -1 -2 -0 -1 -1 -0 0 0 -0 0 0
1 1 -0 1 0 -0 0 -0 -2 -2 -1 -1 -2 -1 -1 -1 -1 -0 -2 -2 -3 -2 -2 -3 -2 -3 -2 -3 -2 -2 -2 -2 -1 -2 -1 -1 -0 -0 -1 -1 -1 -1 -2
1 0 -0 0 1 -0 1 0 -2 -3 -1 -1 -1 -1 0 -0 -2 0 -2 -1 -2 -1 -2 -2 -1 -2 -3 -2 -2 -3 -1 -3 -3 -1 -1 -1 -0 -2 -1 -2 -2 -2 -2
1 0 0 0 0 -1 2 0 -2 -2 -3 -1 -2 -0 1 1 -0 -1 -2 -2 -1 -1 -2 -3 -2 -3 -3 -1 -1 -1 -1 -1 -3 -1 -3 -2 -1 -1 -0 -1 -0 -1 -1
1 2 -0 1 1 -0 1 -3 1 -2 -1 -2 -1 -0 -1 -1 0 -2 -2 -2 -1 -1 -1 -2 -4 -2 -1 -2 -1 -1 -1 -1 -2 -2 -3 -2 -2 -1 -1 -1 -2 -2 -2
-2 1 2 1 -1 0 1 -1 -1 -3 -1 -1 -0 1 1 -0 -1 -0 -1 -1 -0 -2 -0 -1 -2 -0 -1 -1 -0 1 1 0 -1 -2 -2 -1 -0 -0 -1 -1 -1 -1 1
2 2 1 -0 1 -2 2 -2 -1 -1 -1 -1 0 0 0 -0 -1 -1 -1 -1 -1 -1 1 1 -1 1 0 -0 0 1 2 1 -0 1 -0 -1 -2 -2 -1 -0 -0 -0 -1
1 1 2 1 1 -2 -1 -2 -1 1 -2 -0 -0 -0 -1 -0 -1 -1 -1 -1 -1 -1 -1 0 -1 0 1 -0 0 -1 1 -1 -2 -0 -1 -1 -0 -1 -2 -2 -2 -2 0
-1 3 -0 1 -1 -0 -1 -2 -1 1 -2 -0 -1 -0 0 -1 -1 -1 -2 -2 -2 -2 -1 0 0 -0 0 -1 -1 -1 -2 -2 1 -2 -1 -1 -1 -0 -1 -1 -0 -0 -1
3 1 -0 1 -2 1 -2 -3 0 -0 -1 0 -0 -1 -1 -1 -1 -2 -2 -2 -3 -3 0 -0 1 1 1 1 -1 -2 -3 -2 -1 -0 -1 -5 -1 -2 -2 -0 -2 -2 -1
2 1 -1 -2 -1 -1 -2 -1 1 -1 -0 -1 -0 -0 -0 -1 -1 -2 -1 -2 -2 -2 -1 -1 -1 1 1 -0 -2 -2 -2 -2 -3 -1 -1 -2 5 -8 -4 -0 -0 -1 -1
1 -1 -1 -0 -1 -1 -1 -2 -1 -2 -0 -0 0 0 -1 -1 -0 -1 -2 -3 -1 -2 -0 -2 -2 -2 -2 -1 -1 -2 -2 -1 -3 -4 2 -3 1 -3 5 -3 -3 -1 -1
Height
5879 5879 5878 5878 5878 5878 5878 5879 5879 5879 5879 5878 5878 5878 5877 5877 5876 5875 5874 5873 5872 5871 5870 5868 5867 5866 5865 5864 5863 5862 5861 5860 5859 5858 5857 5856 5855 5854 5853 5852 5851 5850 5850
5879 5879 5879 5879 5878 5879 5879 5879 5879 5879 5879 5878 5878 5877 5877 5876 5875 5874 5873 5872 5871 5870 5868 5867 5866 5865 5864 5862 5861 5860 5859 5858 5857 5855 5854 5853 5851 5850 5849 5848 5848 5847 5847
5879 5879 5879 5878 5879 5879 5879 5879 5879 5879 5879 5878 5878 5877 5876 5875 5874 5873 5872 5870 5869 5867 5866 5864 5863 5862 5861 5860 5858 5857 5856 5855 5854 5852 5850 5849 5847 5846 5845 5844 5843 5843 5842
5877 5877 5878 5878 5879 5879 5879 5878 5878 5878 5878 5877 5877 5876 5875 5874 5873 5871 5869 5868 5866 5864 5863 5862 5860 5859 5858 5857 5855 5854 5852 5851 5849 5847 5846 5844 5843 5841 5840 5839 5838 5838 5837
5875 5876 5877 5878 5878 5878 5878 5878 5877 5877 5877 5876 5875 5874 5874 5873 5871 5869 5867 5865 5863 5861 5860 5859 5858 5857 5855 5854 5852 5851 5849 5847 5844 5843 5841 5839 5838 5837 5836 5835 5834 5833 5832
5874 5875 5875 5876 5877 5877 5877 5877 5876 5876 5875 5874 5874 5873 5872 5870 5868 5865 5863 5861 5860 5859 5858 5857 5856 5854 5852 5850 5849 5847 5846 5843 5841 5839 5836 5834 5833 5832 5831 5830 5828 5828 5827
5872 5873 5874 5874 5875 5875 5876 5876 5875 5874 5873 5872 5872 5870 5869 5866 5864 5862 5860 5859 5858 5857 5856 5854 5852 5851 5849 5847 5845 5843 5841 5838 5836 5834 5831 5829 5828 5827 5825 5825 5823 5822 5820
5869 5871 5872 5873 5873 5874 5874 5874 5873 5872 5872 5870 5869 5868 5865 5863 5861 5859 5858 5857 5856 5854 5853 5851 5849 5847 5845 5842 5840 5838 5835 5832 5829 5828 5825 5823 5822 5820 5818 5817 5817 5816 5814
5867 5868 5869 5870 5871 5872 5872 5872 5872 5871 5869 5868 5867 5865 5863 5860 5859 5858 5856 5855 5854 5852 5850 5848 5845 5842 5840 5837 5834 5831 5828 5825 5823 5821 5818 5817 5814 5812 5811 5809 5808 5808 5807
5864 5865 5867 5868 5869 5869 5870 5870 5869 5869 5867 5866 5864 5862 5860 5858 5857 5856 5855 5853 5851 5849 5847 5844 5841 5837 5834 5830 5827 5824 5821 5818 5815 5812 5811 5808 5806 5804 5802 5801 5800 5799 5799
5860 5862 5864 5865 5866 5867 5867 5867 5867 5866 5865 5864 5862 5860 5858 5856 5855 5854 5852 5850 5848 5846 5843 5839 5836 5831 5827 5823 5819 5816 5813 5810 5808 5805 5804 5802 5800 5798 5797 5795 5794 5794 5793
5857 5859 5860 5862 5863 5864 5864 5864 5864 5863 5862 5861 5859 5857 5855 5854 5852 5851 5849 5847 5844 5841 5837 5833 5829 5824 5820 5815 5812 5809 5807 5804 5801 5800 5800 5798 5797 5795 5794 5793 5792 5791 5789
5853 5856 5858 5859 5860 5861 5861 5861 5861 5860 5859 5858 5856 5855 5852 5851 5850 5848 5846 5843 5840 5836 5831 5827 5822 5816 5811 5808 5805 5803 5801 5799 5798 5798 5796 5795 5794 5792 5790 5789 5787 5786 5786
5849 5852 5854 5856 5857 5858 5858 5858 5858 5857 5856 5855 5853 5851 5849 5848 5847 5845 5842 5839 5835 5830 5826 5820 5815 5810 5806 5804 5802 5801 5799 5798 5796 5795 5793 5791 5790 5789 5787 5785 5784 5782 5781
5846 5849 5851 5853 5854 5855 5855 5855 5854 5854 5852 5851 5850 5848 5846 5845 5843 5841 5838 5835 5830 5825 5819 5815 5810 5806 5804 5802 5801 5798 5797 5795 5793 5791 5790 5789 5787 5786 5784 5783 5782 5781 5780
5842 5845 5847 5849 5850 5851 5852 5851 5851 5850 5849 5848 5846 5844 5842 5840 5839 5836 5834 5830 5825 5819 5814 5810 5807 5804 5802 5800 5798 5796 5793 5791 5789 5789 5788 5786 5785 5783 5782 5781 5780 5779 5778
5838 5841 5843 5845 5846 5848 5848 5847 5847 5846 5845 5844 5842 5840 5838 5836 5834 5832 5829 5825 5820 5815 5811 5807 5804 5801 5799 5797 5795 5792 5790 5788 5787 5786 5784 5783 5781 5780 5779 5777 5776 5775 5775
5834 5837 5839 5841 5842 5843 5843 5843 5843 5843 5842 5840 5838 5836 5833 5831 5829 5827 5824 5819 5815 5811 5808 5805 5801 5799 5796 5794 5792 5789 5787 5785 5784 5782 5781 5779 5778 5776 5775 5774 5772 5771 5770
5829 5832 5835 5837 5838 5839 5838 5839 5839 5839 5838 5836 5833 5831 5829 5827 5824 5821 5818 5814 5810 5807 5804 5802 5799 5796 5793 5791 5789 5787 5785 5783 5781 5779 5777 5775 5773 5772 5770 5769 5767 5766 5764
5824 5827 5830 5832 5833 5833 5834 5835 5835 5834 5833 5831 5828 5826 5824 5821 5819 5816 5812 5808 5805 5802 5800 5798 5795 5793 5790 5788 5786 5784 5781 5779 5777 5775 5773 5771 5769 5767 5766 5764 5762 5760 5758
5819 5822 5824 5828 5828 5829 5830 5830 5830 5830 5827 5825 5823 5821 5819 5816 5814 5810 5805 5802 5799 5796 5794 5793 5791 5788 5786 5784 5781 5779 5777 5774 5772 5770 5768 5766 5764 5762 5760 5758 5756 5754 5752
5814 5817 5819 5822 5823 5824 5825 5825 5825 5824 5822 5820 5817 5815 5813 5811 5808 5804 5799 5795 5792 5790 5788 5787 5785 5783 5780 5778 5776 5774 5772 5770 5767 5765 5762 5760 5758 5756 5754 5751 5749 5746 5745
5809 5812 5815 5817 5818 5819 5819 5819 5819 5818 5816 5814 5811 5809 5807 5805 5801 5797 5792 5789 5786 5784 5782 5780 5779 5778 5775 5773 5770 5768 5766 5764 5761 5759 5756 5753 5751 5749 5747 5744 5741 5739 5737
5804 5808 5810 5811 5813 5813 5814 5814 5812 5811 5810 5807 5805 5803 5801 5798 5795 5790 5786 5783 5781 5779 5776 5774 5772 5771 5769 5767 5764 5762 5759 5757 5754 5752 5749 5745 5743 5741 5738 5735 5732 5729 5727
5799 5802 5804 5806 5808 5808 5808 5807 5806 5805 5803 5801 5799 5797 5794 5791 5787 5783 5780 5777 5775 5773 5770 5768 5766 5764 5762 5760 5757 5754 5751 5748 5745 5743 5740 5738 5736 5731 5728 5725 5722 5719 5716
5793 5796 5799 5800 5802 5802 5802 5801 5800 5798 5796 5794 5792 5790 5788 5785 5780 5777 5773 5771 5768 5766 5763 5761 5759 5757 5754 5752 5749 5746 5743 5740 5736 5733 5730 5727 5724 5721 5718 5714 5711 5708 5705